"Pseudo-MPEC" for P11WLcm

Created 2024 Aug 5 1:22:06 UT using Find_Orb

Click here for an explanation of pseudo-MPECs

 
 Astrometry: 
     P11WLcm  C2024 07 27.49954722 51 08.185-30 17 31.63   ~82HM 21.04GVNEOCPF51
     P11WLcm  C2024 07 27.50989322 51 08.287-30 17 28.37   ~82HM 21.05GVNEOCPF51
     P11WLcm  C2024 07 27.52022522 51 08.394-30 17 25.35   ~82HM 21.10GVNEOCPF51
     P11WLcm  C2024 07 27.53057522 51 08.493-30 17 22.07   ~82HM 20.91GVNEOCPF51
     P11WLcm* C2024 07 31.52608422 51 54.710-29 54 42.68   ~81Gq 21.28wXNEOCPF51
     P11WLcm  C2024 07 31.53574322 51 54.692-29 54 39.41   ~81Gq 21.16wXNEOCPF51
     P11WLcm  C2024 07 31.54539622 51 54.646-29 54 35.47   ~81Gq 21.20wXNEOCPF51
     P11WLcm 3C2024 08 02.52977622 51 58.860-29 41 54.73   ~82Db 21.24GVNEOCPT14
     P11WLcm 3C2024 08 02.53075622 51 58.840-29 41 54.21   ~82Db 20.73GVNEOCPT14
     P11WLcm 3C2024 08 02.53173922 51 58.832-29 41 53.78   ~82Db 20.70GVNEOCPT14
     P11WLcm 3C2024 08 02.53272122 51 58.822-29 41 53.40   ~82Db 20.68GVNEOCPT14

Station data:
(F51) Pan-STARRS 1, Haleakala  (N20.707234 W156.255910)  US/Hawaii.
   Observers J. Bulger, T. Lowe, A. Schultz, M. Willman. Measurers K.
   Chambers, S. Chastel, T. de Boer, L. Denneau, J. Fairlamb, H. Flewelling,
   M. Huber, C.-C. Lin, E. Magnier, Y. Ramanjooloo, R. Wainscoat, R. Weryk.
   1.8-m Ritchey-Chrétien + CCD.
(T14) Mauna Kea-UH/Tholen NEO Follow-Up (CFHT)  (N19.825252 W155.468876)
   US/Hawaii.  Observer R. Weryk. 3.6-m Canada-France-Hawaii Telescope.

Orbital elements:  P11WLcm
   Perihelion 2024 Aug 12.36028 +/- 0.376 TT =  8:38:48 (JD 2460534.86028)
Epoch 2024 Aug  2.0 TT = JDT 2460524.5   Earth MOID: 0.4445   Ma: 0.0911
M 356.98269545 +/- 0.11             (J2000 ecliptic)             AutoNEOCP
n   0.29123773 +/- 0.00076          Peri.  317.16674 +/- 0.34
a   2.25408842 +/- 0.00392          Node     6.10534 +/- 0.09
e   0.3611152 +/- 0.00084           Incl.    8.75652 +/- 0.014
P   3.38420                H 20.92  G  0.15   U  7.9
q 1.44010276 +/- 0.000648    Q 3.06807409 +/- 0.00723
From 11 observations 2024 July 27-Aug. 2; mean residual 0".08
Residuals in arcseconds: 
240727 F51  .00   .04-    240731 F51  .04-  .08+    240802 T14  .04-  .02+    
240727 F51  .03-  .09+    240731 F51  .12+  .21-    240802 T14  .02-  .05+    
240727 F51  .03+  .06-    240731 F51  .08-  .13+    240802 T14  .03-  .04+    
240727 F51  .00   .01+    240802 T14  .10+  .11-    

Ephemerides (geocentric):
Date (UTC) HH   RA             Dec           delta  r     elong  mag " sig PA
---- --------  ------------   ------------  ------ ------ -----  --- --------
2024 08 05 01  22 51 46.970   -29 24 05.14  .46547 1.4415 151.8 21.0 .331 104
2024 08 05 02  22 51 46.614   -29 23 46.71  .46537 1.4415 151.8 21.0 .337 104
2024 08 05 03  22 51 46.253   -29 23 28.24  .46528 1.4415 151.8 21.0 .344 104
2024 08 05 04  22 51 45.887   -29 23 09.75  .46518 1.4414 151.9 21.0 .351 104
2024 08 05 05  22 51 45.516   -29 22 51.23  .46509 1.4414 151.9 21.0 .358 104
2024 08 05 06  22 51 45.140   -29 22 32.67  .46499 1.4414 151.9 21.0 .365 104
2024 08 05 07  22 51 44.759   -29 22 14.09  .46490 1.4414 151.9 21.0 .372 103
2024 08 05 08  22 51 44.372   -29 21 55.47  .46480 1.4414 152.0 21.0 .379 103
2024 08 05 09  22 51 43.981   -29 21 36.82  .46471 1.4414 152.0 21.0 .386 103
2024 08 05 10  22 51 43.585   -29 21 18.14  .46461 1.4413 152.0 21.0 .393 103
2024 08 05 11  22 51 43.184   -29 20 59.43  .46452 1.4413 152.1 21.0 .400 103
2024 08 05 12  22 51 42.778   -29 20 40.69  .46442 1.4413 152.1 21.0 .407 103
2024 08 05 13  22 51 42.367   -29 20 21.91  .46433 1.4413 152.1 21.0 .414 103
2024 08 05 14  22 51 41.951   -29 20 03.10  .46424 1.4413 152.2 21.0 .421 103
2024 08 05 15  22 51 41.530   -29 19 44.26  .46414 1.4413 152.2 21.0 .429 103
2024 08 05 16  22 51 41.104   -29 19 25.39  .46405 1.4413 152.2 21.0 .436 103
2024 08 05 17  22 51 40.673   -29 19 06.49  .46396 1.4412 152.2 21.0 .443 103
2024 08 05 18  22 51 40.237   -29 18 47.56  .46386 1.4412 152.3 21.0 .451 103
2024 08 05 19  22 51 39.796   -29 18 28.59  .46377 1.4412 152.3 21.0 .458 103
2024 08 05 20  22 51 39.351   -29 18 09.59  .46368 1.4412 152.3 21.0 .466 103
2024 08 05 21  22 51 38.900   -29 17 50.56  .46359 1.4412 152.4 21.0 .474 103
2024 08 05 22  22 51 38.444   -29 17 31.50  .46350 1.4412 152.4 21.0 .481 103
2024 08 05 23  22 51 37.983   -29 17 12.41  .46340 1.4412 152.4 21.0 .489 103
2024 08 06 00  22 51 37.518   -29 16 53.28  .46331 1.4411 152.5 21.0 .497 103
2024 08 06 01  22 51 37.047   -29 16 34.12  .46322 1.4411 152.5 21.0 .504 103
2024 08 06 02  22 51 36.572   -29 16 14.93  .46313 1.4411 152.5 21.0 .512 103
2024 08 06 03  22 51 36.092   -29 15 55.71  .46304 1.4411 152.5 21.0 .520 103
2024 08 06 04  22 51 35.607   -29 15 36.45  .46295 1.4411 152.6 21.0 .528 103
2024 08 06 05  22 51 35.117   -29 15 17.17  .46286 1.4411 152.6 21.0 .536 103
2024 08 06 06  22 51 34.622   -29 14 57.85  .46277 1.4411 152.6 21.0 .544 103
2024 08 06 07  22 51 34.122   -29 14 38.49  .46268 1.4411 152.7 21.0 .552 103
2024 08 06 08  22 51 33.617   -29 14 19.11  .46259 1.4410 152.7 21.0 .560 103
2024 08 06 09  22 51 33.107   -29 13 59.69  .46250 1.4410 152.7 21.0 .568 103
2024 08 06 10  22 51 32.593   -29 13 40.24  .46241 1.4410 152.8 21.0 .576 103
2024 08 06 11  22 51 32.074   -29 13 20.76  .46232 1.4410 152.8 21.0 .585 103
2024 08 06 12  22 51 31.549   -29 13 01.24  .46223 1.4410 152.8 21.0 .593 103
2024 08 06 13  22 51 31.020   -29 12 41.69  .46214 1.4410 152.8 21.0 .601 103
2024 08 06 14  22 51 30.487   -29 12 22.11  .46206 1.4410 152.9 21.0 .610 103
2024 08 06 15  22 51 29.948   -29 12 02.50  .46197 1.4410 152.9 21.0 .618 103
2024 08 06 16  22 51 29.404   -29 11 42.85  .46188 1.4409 152.9 21.0 .626 103
2024 08 06 17  22 51 28.856   -29 11 23.17  .46179 1.4409 153.0 21.0 .635 103
2024 08 06 18  22 51 28.303   -29 11 03.46  .46171 1.4409 153.0 21.0 .644 103
2024 08 06 19  22 51 27.745   -29 10 43.71  .46162 1.4409 153.0 21.0 .652 103
2024 08 06 20  22 51 27.182   -29 10 23.93  .46153 1.4409 153.1 21.0 .661 103
2024 08 06 21  22 51 26.614   -29 10 04.12  .46144 1.4409 153.1 21.0 .669 103
2024 08 06 22  22 51 26.042   -29 09 44.27  .46136 1.4409 153.1 21.0 .678 103
2024 08 06 23  22 51 25.465   -29 09 24.40  .46127 1.4409 153.1 21.0 .687 103
2024 08 07 00  22 51 24.883   -29 09 04.48  .46119 1.4408 153.2 21.0 .696 103